DELTA 1 DEB, 29187

Orbit data source: Space-Track

DELTA 1 DEB, 29187 is space debris in LEO originally from a launch on Thu, 11 Jan 1968 UTC launched from the Air Force Western Test Range (AFWTR). Debris objects in space refer to the collection of defunct objects orbiting the Earth. Examples of debris include non-operational satellites, rocket bodies, and fragments generated from explosions, collisions, or faulty payload assembly.

Loading next visibility...
Identifier
29187, 1968-002L
Orbit
LEO
Country
Flag of USUS
Related business
Manufacturer
Unknown
Mission
Spacecraft
Bus & Motor
Unknown
Mass
Unknown
Launch date (UTC)
1968-01-11 (59 years ago)
Launch vehicle
Unknown
Launch site
Air Force Western Test Range (AFWTR)
Object type
Payload
Rocket body
Debris
Shape & HBR
Unknown shape, 0.1 m
Radar Cross Section
Small (<0.1 m²)

Expand to show TLE details & history
Last TLE update: 1 month ago

TLE from 1 month ago
0 DELTA 1 DEB
1 29187U 68002L   26219.61878652 -.00000007  00000-0  21298-3 0  9999
2 29187 105.8081  11.8134 0295276 140.3644 285.3547 12.91309150608754
Epoch: 2026-08-07T14:51Z
TLE epoch observation values (Epoch: 2026-08-07T14:51:03.155Z)
Latitude
58.62762°
Longitude
165.39243°
Altitude
1,252.151 km
Speed
7.26 km/s
True Right ascension
22h 57m 11s
True Declination
58° 29' 04"
Sunlit
Object was in daylight at epoch
Visualization orbit readout
Latitude
Unknown
Longitude
Unknown
Altitude
Unknown
Speed
Unknown
Apparent Right ascension
Unknown
Apparent Declination
Unknown
Sunlit
N/A
Visualization observer readout
Local Sidereal Time
10:06:47
Azimuth
Unknown
Elevation
Unknown
Doppler factor
Unknown
Orbital elements
Apogee altitude
1,520.647 km
Perigee altitude
1,067.561 km
Semi-major axis
7,672.241 km
Eccentricity
0.02953
Inclination
105.8081°
RAAN
11.8134°
Arg. of periapsis
140.3644°
True anomaly
282.06149°
Mean anomaly
285.3547°
Eccentric anomaly
283.7111°
Mean motion
3.22968 °/min
Orbital period
111.47 mins
BSTAR
0.00021298
Loading maneuver chart data...
Computing Atmospheric mass density...
Loading historical data...
Loading historical data...
Loading historical data...
Loading historical data...
Loading historical data...
Loading historical data...
Loading historical data...

Documentation

Showing up to 5 results
|